Location: Recife
(8.0585°S, 34.8848°W)
Time: 12:24:57
(UTC-03:00)

Transit 4A - Pass Details

Date: 16 April 2026
Orbit: 861 x 980 km, 66.8° (Epoch: 12 May)

Event Time Altitude Azimuth Distance (km) Brightness Sun altitude
Rises 23:05:15 0° 18° (NNE) 3,652 - -85.8°
Reaches altitude 10° 23:09:17 10° 43° (NE) 2,696 - -86.6°
Maximum altitude 23:12:18 14° 72° (ENE) 2,418 - -87.1°
Drops below altitude 10° 23:15:17 10° 101° (E) 2,674 - -87.4°
Sets 23:19:13 0° 125° (SE) 3,598 - -87.6°
